Vertical_Velocity
-3 -5 0 1 6 -0 30 1 -5 2 -1 14 -8 18 30 23 15 22 13 8 10 2
-3 -3 -6 -2 1 -5 4 -0 1 -3 -1 6 -1 -2 8 2 5 8 3 -7 -8 19
3 3 4 2 -4 -0 0 -8 -5 -5 -6 -4 -0 -1 3 4 15 -1 10 -5 11 17
-1 -2 -7 -5 -3 1 2 1 0 0 -1 -2 -3 -4 -6 -11 0 0 1 -3 1 3
-0 -0 -0 1 2 2 2 -0 -0 0 1 0 -1 -1 1 -0 -3 -4 -4 -6 -10 4
1 0 -0 -1 -0 -0 -1 -1 -0 1 -1 -2 -2 1 3 0 -0 1 -1 2 2 2
-0 0 1 1 -0 -0 -1 -2 -2 -2 -2 -1 2 3 0 -2 -0 2 1 -0 2 0
2 3 2 2 2 1 1 1 -0 -0 -1 -0 -1 -3 -4 -3 -2 -3 1 0 0 -2
-2 -1 1 1 1 1 3 3 2 2 1 1 -0 -2 -2 -3 -2 -1 -2 -1 -3 -2
2 2 2 3 2 1 1 0 -0 0 0 0 -1 -0 -0 -1 0 1 3 3 3 1
-4 -3 -2 -2 -2 -2 -2 -2 -2 -2 -2 -3 -2 -2 -1 -2 -1 -1 -2 -2 -1 -0
2 2 1 0 0 0 1 2 3 2 1 1 2 0 1 -1 -0 -0 -2 -3 -2 -2
-1 -1 -1 -2 -2 -2 -3 -1 -3 -2 -3 -3 -3 0 1 -3 -1 0 0 2 1 -1
-2 -2 -3 -2 -3 -1 -1 -2 -1 0 0 -1 -3 -3 -4 -3 -5 -6 -7 -4 -1 1
Height
3034 3035 3036 3033 3030 3032 3029 3031 3029 3028 3024 3022 3021 3017 3015 3014 3014 3015 3014 3016 3017 3016
3028 3028 3028 3026 3024 3025 3026 3023 3023 3022 3019 3016 3013 3011 3007 3006 3006 3006 3007 3007 3006 3007
3025 3025 3024 3024 3023 3024 3024 3022 3019 3017 3014 3010 3007 3006 3003 3001 2999 3000 3000 3000 3000 3000
3026 3025 3023 3022 3023 3022 3020 3017 3015 3013 3010 3007 3006 3003 3000 2996 2995 2995 2994 2992 2992 2993
3024 3022 3021 3020 3019 3017 3015 3013 3011 3008 3005 3002 3000 2997 2996 2994 2992 2991 2990 2990 2988 2987
3023 3022 3020 3019 3017 3014 3012 3010 3007 3004 3001 2997 2995 2993 2991 2989 2987 2986 2985 2983 2982 2981
3020 3018 3016 3014 3012 3010 3007 3005 3002 2998 2995 2992 2989 2987 2984 2983 2981 2979 2977 2976 2974 2973
3017 3015 3013 3010 3007 3004 3001 2998 2994 2991 2987 2984 2981 2979 2977 2974 2972 2970 2969 2967 2965 2963
3014 3011 3007 3004 3000 2996 2992 2989 2985 2981 2977 2974 2969 2966 2963 2961 2959 2958 2956 2955 2954 2952
3007 3003 2999 2995 2990 2986 2982 2978 2973 2969 2965 2962 2958 2954 2951 2949 2947 2945 2942 2940 2939 2938
3002 2997 2993 2989 2984 2980 2976 2971 2966 2962 2957 2953 2950 2945 2941 2938 2936 2934 2931 2929 2926 2923
2996 2992 2987 2981 2976 2971 2967 2963 2958 2954 2949 2945 2942 2937 2932 2928 2926 2924 2922 2919 2917 2913
2988 2983 2978 2974 2969 2964 2958 2954 2949 2945 2941 2936 2932 2928 2924 2918 2913 2910 2907 2905 2903 2901
2979 2974 2969 2965 2960 2954 2950 2944 2941 2936 2932 2928 2922 2916 2913 2909 2903 2899 2895 2894 2893 2891